STARLINK-32837, 62812

Orbit data source: Space-Track

STARLINK-32837, 62812 is a payload satellite owned by SpaceX/Seattle (US) in LEO that was launched on Fri, 24 Jan 2025 UTC via an FALCON 9 launch vehicle from the Air Force Western Test Range (AFWTR). Payload-class satellites include a variety of spacecraft equipped with specific instruments for various scientific and technological missions. These include communications satellites like Starlink; space stations such as the ISS; scientific satellites like the Hubble; Earth observation satellites from companies like Planet Labs, Umbra, and HawkEye 360; GPS; miniature CubeSats for education and research; and military/defense satellites.

Loading next visibility...
Identifier
62812, 2025-018G
Orbit
LEO
Last TLE update
6 hours ago
Origin
Manufacturer
SpaceX/Seattle
Mission
Operational Commercial Communications
Bus & Motor
STARLINK V2M, Unknown motor
Mass
730 kg wet, ~700 kg dry
Launch date (UTC)
2025-01-24 (5 months ago)
Launch vehicle
FALCON 9
Launch site
Air Force Western Test Range (AFWTR)
Object type
Payload
Rocket body
Debris
Shape & HBR
Box + 2 Pan, 29 m
Radar Cross Section
33.884 m², Large (>1 m²)

Expand to show TLE details & history

TLE from 6 hours ago
0 STARLINK-32837
1 62812U 25018G   25182.90113626  .00005804  00000-0  20794-3 0  9993
2 62812  53.1613  34.3474 0001202  83.2073 276.9064 15.30197072 24783
Epoch: 2025-07-01T21:37Z
TLE epoch observation values (Epoch: 2025-07-01T21:37:38.172Z)
Latitude
-0.00008°
Longitude
149.74834°
Altitude
476.025 km
Speed
7.629 km/s
True Right ascension
02h 17m 23s
True Declination
0° 00' 00"
Sunlit
Object was in daylight at epoch
Visualization orbit readout
Latitude
-15.60703°
Longitude
136.53949°
Altitude
479.613 km
Speed
7.626 km/s
Apparent Right ascension
02h 17m 45s
Apparent Declination
-28° 02' 27"
Sunlit
Object is in daylight
Visualization observer readout
Local Sidereal Time
15:30:02
Azimuth
56.998° ENE
Elevation
-70.943°
Doppler factor
1
Orbital elements
Apogee altitude
476.304 km
Perigee altitude
474.656 km
Semi-major axis
6,853.617 km
Eccentricity
0.00012
Inclination
53.1613°
RAAN
34.3474°
Arg. of periapsis
83.2073°
True anomaly
Unknown
Mean anomaly
276.9064°
Eccentric anomaly
Unknown
Mean motion
3.82528 °/min
Orbital period
94.11 mins
BSTAR
0.00020794
Loading maneuver chart data...
Loading SW <> Apogee altitude chart data...
Loading historical data...
Loading historical data...
Loading historical data...
Loading historical data...
Loading historical data...
Loading historical data...
Loading historical data...

STARLINK-32837 Visibility forecast

Observer location: undefined°, undefined°

Span
Click to sort rows by Start time (UTC) header in descending order
Start Az.
Max El. time (UTC)
Max El. Az.
Max El.
End time (UTC)
End Az.
6 mins2025-07-02 16:36:44.654Z217.239° SW2025-07-02 16:39:44.654Z121.273° SE42.163°2025-07-02 16:42:44.654Z56.219° ENE
5 mins2025-07-02 23:12:44.654Z327.387° NNW2025-07-02 23:14:44.654Z44.855° NE39.286°2025-07-02 23:17:44.654Z113.83° SE
|